Location: Asheville, NC
(35.6000°N, 82.5500°W)
Time: 10:37:59
(UTC-04:00)

Vanguard 2 - Pass Details

Date: 11 March 2018
Orbit: 553 x 2939 km, 32.9° (Epoch: 18 June)

Event Time Altitude Azimuth Distance (km) Brightness Sun altitude
Rises 13:29:05 0° 250° (WSW) 6,059 12.2 50.8°
Reaches altitude 10° 13:32:42 10° 249° (WSW) 5,271 12.1 50.8°
Maximum altitude 13:49:30 76° 167° (SSE) 2,999 11.9 50.8°
Drops below altitude 10° 14:06:31 10° 86° (E) 5,332 11.8 50.4°
Sets 14:10:13 0° 85° (E) 6,129 12.0 50.3°
